Wind_Speed
5 5 5 5 6 6 6 6 6 6 6 6 7 7 7 7 8 8 9 10 11 11 11 11 11 11 11 11 12 12 12 12 12 12 12 12 13 13 13 13 13 12 12
6 6 6 6 6 7 7 7 7 7 7 6 6 7 7 7 8 8 8 9 10 11 11 11 11 12 11 12 12 12 12 12 13 13 13 12 13 13 14 13 13 14 13
6 6 6 6 6 7 7 7 7 7 6 6 6 7 7 7 8 9 9 9 10 11 12 12 11 12 12 12 12 13 13 13 13 14 14 14 14 14 14 14 14 14 14
7 7 6 7 7 7 7 7 7 7 7 7 7 7 7 8 8 8 9 9 10 10 11 12 12 12 12 12 13 13 13 14 14 15 14 14 14 15 15 15 15 15 15
7 7 7 7 8 7 8 8 7 7 7 7 7 7 8 8 8 9 9 9 10 10 11 12 12 11 12 12 13 13 13 13 14 15 15 14 14 15 16 16 16 16 17
8 8 7 7 8 8 8 8 7 7 7 7 7 8 8 8 9 9 9 9 9 10 10 11 11 11 11 12 13 12 13 13 13 14 14 14 14 15 16 17 17 17 18
8 8 8 8 8 8 8 7 7 7 7 7 8 8 8 8 9 9 10 9 9 9 9 10 11 11 11 12 12 12 14 13 14 15 15 15 15 16 17 17 17 17 18
9 9 9 8 8 7 7 7 7 6 7 7 8 8 8 8 9 9 9 9 9 9 9 10 11 12 12 13 13 13 13 13 14 14 15 16 16 16 16 16 17 17 17
10 9 9 8 8 8 7 7 7 6 7 7 8 8 8 8 9 9 9 9 9 10 10 11 11 12 13 14 14 14 14 15 15 15 16 16 16 17 17 18 18 18 18
10 9 9 9 8 8 7 7 7 7 7 7 8 8 8 8 9 9 8 9 9 9 10 10 11 12 12 13 14 15 14 15 16 16 16 17 18 18 18 19 19 19 19
11 10 9 9 9 8 8 8 7 7 7 7 8 8 8 8 8 8 8 8 9 9 10 11 12 12 13 13 15 15 15 15 16 16 16 17 18 19 19 19 19 19 19
11 10 9 9 9 8 8 8 7 7 7 8 8 8 8 8 8 8 9 9 9 10 11 12 13 13 14 15 15 15 16 16 16 16 16 17 17 18 19 19 20 20 21
11 10 9 9 8 8 8 8 8 8 8 8 8 8 8 8 8 9 9 9 9 10 11 11 12 13 13 13 14 14 15 16 17 17 17 17 18 19 19 19 20 20 21
10 9 9 9 8 8 8 8 8 9 9 9 9 9 9 9 9 9 9 9 10 11 11 12 13 14 14 14 14 15 15 16 16 16 16 17 18 18 19 19 20 20 20
10 10 10 9 9 9 9 8 9 9 10 10 10 10 10 10 10 10 11 11 11 11 12 12 13 14 14 14 14 14 14 14 15 16 17 17 18 18 19 19 20 20 20
10 10 10 10 10 10 9 9 9 9 10 10 10 10 11 11 12 12 12 12 12 12 13 13 14 14 13 13 13 13 14 14 15 16 17 17 17 18 18 19 19 20 21
11 11 11 11 11 11 10 10 10 10 10 10 11 11 12 12 12 12 13 12 13 13 14 14 13 13 13 13 14 14 14 15 16 17 17 17 17 18 18 19 19 20 21
12 12 12 11 11 11 11 11 10 10 10 11 11 12 12 13 13 13 13 13 13 13 14 14 14 14 14 14 14 15 15 16 16 17 17 18 18 18 19 20 20 22 23
12 12 11 11 11 11 11 11 11 10 11 11 12 12 12 13 13 14 14 14 14 15 15 15 14 14 14 15 15 15 16 17 18 19 19 19 19 20 21 22 23 23 24
13 13 12 12 12 12 12 12 11 11 12 13 13 13 13 14 14 14 14 14 15 15 15 15 15 15 15 16 16 17 18 19 20 21 21 21 21 22 23 24 25 26 27
14 14 13 13 13 13 13 12 12 12 12 13 13 13 14 14 14 14 14 14 15 15 16 16 17 17 17 18 18 19 20 21 22 22 23 23 23 25 26 27 28 29 30
14 14 14 14 14 14 14 14 14 13 13 13 13 14 14 14 14 14 14 15 15 16 17 17 18 19 20 20 21 22 23 23 24 25 25 26 27 28 28 29 30 31 31
14 14 14 14 15 15 14 14 14 13 13 14 14 14 14 14 14 14 15 15 16 16 17 18 19 20 21 22 23 24 25 25 26 26 27 28 29 30 30 30 31 31 32
14 14 14 14 14 15 14 14 15 14 14 14 15 15 15 14 15 16 17 17 18 18 19 20 21 22 23 24 25 26 26 27 28 29 30 30 30 31 32 32 33 34 34
15 15 14 15 15 15 15 14 14 14 14 15 15 15 16 16 16 17 18 19 19 20 21 22 23 24 26 27 27 28 29 29 30 29 30 31 31 32 33 34 35 36 37
16 16 16 16 16 16 16 16 16 16 16 16 16 16 16 17 18 18 19 20 21 22 23 24 25 27 27 28 29 30 31 31 31 31 31 32 33 34 35 35 36 37 38
Wind_Direction
261 264 277 287 295 301 304 305 308 305 304 299 294 290 286 284 281 275 269 263 263 263 263 262 255 254 256 256 252 248 249 249 250 251 253 256 256 256 254 254 255 255 257
260 262 271 280 289 294 298 301 303 302 303 301 298 295 290 284 281 277 273 268 265 264 263 262 258 256 259 256 256 252 253 252 250 252 254 257 259 260 257 256 256 256 256
263 264 272 281 289 293 296 301 301 302 300 299 299 297 290 285 281 278 274 270 267 264 263 264 261 257 258 256 257 254 254 254 252 253 256 257 256 256 257 255 257 255 255
261 266 270 280 288 288 291 297 298 301 300 299 297 294 290 286 283 280 279 277 273 268 266 265 264 261 260 261 258 258 256 258 257 256 256 258 259 257 256 258 261 259 258
265 269 271 280 284 285 290 292 293 300 305 303 297 296 295 290 287 284 281 279 275 271 266 266 265 262 264 266 261 260 257 261 262 260 257 259 262 261 259 259 261 263 263
268 274 272 277 281 283 289 291 295 299 304 304 301 300 299 295 291 286 282 277 274 273 269 266 267 267 267 267 264 265 264 263 265 264 261 262 265 265 262 260 262 263 265
268 272 274 276 278 281 285 290 295 302 308 308 305 304 300 297 293 289 285 278 278 275 271 269 270 270 269 269 270 269 268 268 272 270 267 265 267 268 267 265 265 266 266
263 268 270 270 273 277 282 289 297 304 311 313 310 306 301 298 296 295 292 288 282 278 277 275 273 272 273 272 274 273 272 272 272 272 270 265 266 266 267 267 267 268 271
259 265 269 265 267 272 278 287 293 301 309 312 311 307 302 298 297 298 295 292 290 284 278 274 273 273 274 274 274 275 277 272 271 271 273 270 266 265 267 269 269 270 272
254 261 261 261 262 267 275 281 286 292 300 307 309 308 306 302 299 296 293 289 288 289 286 282 279 276 276 278 278 276 275 273 274 274 278 275 271 269 269 269 269 269 270
252 253 256 260 259 264 272 276 280 286 295 304 308 311 310 307 302 299 293 292 293 292 290 287 288 283 280 281 282 280 278 279 279 280 280 277 276 273 272 271 271 272 274
251 252 256 259 258 263 271 276 279 282 291 301 306 306 305 306 305 303 299 296 296 295 295 294 293 291 286 285 284 284 283 284 283 284 282 279 279 277 276 275 274 275 275
252 251 253 255 257 263 268 275 280 286 292 296 299 298 298 302 304 304 302 301 300 298 297 299 298 297 295 296 294 290 288 287 287 287 286 283 280 278 277 277 276 276 275
252 253 253 250 256 262 267 272 278 284 289 291 293 292 295 298 301 302 303 304 303 300 300 300 301 301 303 300 296 293 290 289 288 288 289 286 282 280 278 277 277 276 275
250 248 250 252 257 264 268 273 279 283 287 290 292 294 295 297 297 300 301 303 305 305 304 305 305 305 304 301 296 293 293 291 290 291 291 288 283 280 278 276 277 276 276
250 247 247 253 259 264 266 270 277 282 285 288 290 292 296 297 294 296 299 302 305 307 307 307 307 307 305 303 300 295 294 294 296 296 292 289 286 282 279 278 277 277 278
252 250 249 254 260 263 265 270 274 280 283 287 290 293 296 298 298 299 300 300 302 304 304 304 304 304 304 301 300 297 295 294 296 295 293 290 287 283 281 279 278 280 280
250 252 251 254 261 265 265 267 273 280 284 289 292 294 298 299 298 299 301 301 301 303 302 302 302 302 302 300 298 297 296 298 297 294 292 290 287 284 282 280 280 282 282
250 252 252 255 260 265 270 272 272 279 284 288 291 294 297 298 299 302 302 301 302 302 302 301 301 299 299 297 297 298 297 296 295 294 292 290 288 286 285 284 284 283 284
247 250 252 256 261 265 270 275 272 276 282 285 290 292 295 297 300 301 301 301 304 304 303 303 303 302 298 296 297 298 297 296 296 295 293 291 288 287 286 285 286 286 285
246 249 252 256 261 264 268 272 274 277 282 285 287 291 294 297 300 301 302 302 304 304 303 304 304 304 302 300 301 302 300 299 298 296 295 292 291 290 289 288 288 288 287
247 250 254 257 259 261 266 272 275 279 283 289 291 290 294 296 299 301 302 303 304 304 302 303 304 304 303 301 301 301 301 300 298 297 296 294 293 292 291 292 290 290 289
250 253 256 257 257 261 267 271 277 280 284 289 291 294 297 296 295 299 302 303 305 306 304 305 305 305 305 303 302 302 301 300 299 298 297 296 295 293 292 292 291 291 291
251 253 256 257 259 262 266 270 274 282 283 287 291 292 294 295 295 295 297 299 301 303 304 305 305 305 304 304 304 303 302 302 300 298 297 296 296 294 293 292 291 291 291
252 253 255 257 260 262 266 271 275 280 284 287 291 291 293 292 295 296 295 296 298 301 303 304 305 305 304 303 303 302 301 301 301 298 296 296 296 295 294 293 292 292 292
252 256 255 257 260 261 264 270 272 278 282 286 290 291 293 292 292 294 296 297 298 299 301 302 303 304 303 303 303 302 301 301 300 299 298 297 298 297 296 294 294 293 292
Height
5898 5897 5897 5896 5896 5895 5894 5893 5892 5891 5889 5888 5887 5886 5886 5885 5884 5883 5882 5881 5881 5881 5880 5880 5881 5881 5882 5882 5882 5883 5883 5883 5884 5884 5885 5885 5885 5885 5885 5885 5885 5885 5885
5897 5896 5896 5895 5894 5894 5893 5892 5891 5890 5888 5887 5886 5885 5884 5883 5882 5881 5880 5879 5879 5879 5878 5878 5878 5879 5879 5880 5880 5880 5880 5881 5881 5881 5882 5882 5882 5882 5882 5883 5883 5882 5883
5895 5895 5894 5894 5893 5892 5891 5891 5890 5888 5887 5886 5885 5884 5883 5881 5880 5879 5878 5878 5877 5876 5876 5876 5876 5876 5877 5877 5877 5877 5878 5878 5878 5878 5879 5879 5879 5879 5879 5879 5879 5879 5880
5893 5893 5893 5892 5892 5891 5890 5889 5888 5887 5886 5885 5883 5882 5881 5880 5879 5878 5877 5876 5875 5874 5874 5874 5874 5874 5874 5874 5874 5875 5875 5875 5875 5876 5876 5876 5876 5876 5876 5876 5876 5876 5876
5892 5891 5891 5890 5890 5889 5889 5888 5887 5886 5884 5883 5882 5881 5880 5878 5877 5876 5875 5874 5873 5872 5872 5872 5872 5872 5872 5872 5872 5872 5872 5872 5873 5873 5873 5873 5873 5873 5873 5873 5873 5873 5873
5890 5890 5889 5889 5888 5888 5887 5886 5885 5884 5883 5882 5881 5879 5878 5877 5876 5875 5874 5873 5871 5870 5870 5869 5869 5870 5870 5870 5870 5869 5870 5869 5870 5870 5870 5870 5870 5870 5870 5870 5870 5869 5869
5888 5888 5887 5887 5887 5886 5886 5885 5884 5883 5882 5880 5879 5878 5877 5875 5874 5873 5872 5871 5869 5868 5868 5868 5867 5868 5867 5867 5867 5867 5866 5866 5866 5866 5866 5866 5866 5866 5866 5866 5866 5866 5865
5886 5886 5886 5885 5885 5885 5884 5883 5883 5882 5880 5879 5878 5876 5875 5875 5873 5872 5870 5869 5868 5867 5866 5866 5865 5865 5865 5864 5864 5864 5863 5863 5863 5863 5863 5863 5863 5863 5863 5862 5862 5862 5861
5884 5884 5883 5883 5883 5883 5883 5882 5881 5880 5879 5878 5876 5875 5874 5873 5872 5870 5869 5868 5867 5865 5864 5864 5863 5862 5862 5862 5861 5861 5861 5860 5860 5860 5859 5859 5859 5859 5859 5858 5858 5858 5857
5882 5882 5881 5882 5882 5881 5881 5880 5880 5879 5878 5877 5875 5874 5872 5871 5870 5869 5868 5866 5865 5864 5863 5862 5861 5860 5859 5859 5858 5858 5857 5857 5856 5856 5855 5855 5855 5854 5854 5854 5853 5853 5853
5879 5880 5879 5879 5880 5880 5879 5879 5878 5877 5876 5875 5874 5872 5871 5869 5868 5867 5866 5865 5864 5863 5861 5860 5858 5857 5857 5856 5855 5854 5854 5853 5853 5852 5851 5850 5850 5849 5849 5849 5849 5848 5848
5877 5877 5877 5877 5877 5878 5877 5877 5876 5875 5875 5873 5872 5871 5870 5868 5867 5865 5864 5863 5862 5861 5859 5858 5856 5855 5853 5852 5851 5850 5850 5849 5848 5848 5847 5846 5845 5845 5844 5844 5843 5843 5842
5875 5875 5875 5875 5876 5875 5875 5875 5874 5874 5873 5872 5870 5869 5868 5867 5865 5864 5863 5861 5860 5858 5857 5855 5853 5851 5850 5848 5847 5846 5846 5845 5844 5843 5842 5841 5840 5840 5839 5838 5838 5837 5837
5872 5872 5873 5873 5873 5873 5873 5873 5872 5871 5871 5870 5868 5867 5866 5865 5864 5862 5861 5859 5858 5856 5854 5852 5850 5848 5845 5844 5843 5842 5842 5841 5840 5839 5837 5836 5835 5834 5833 5833 5832 5832 5831
5869 5870 5871 5871 5871 5871 5871 5870 5870 5869 5868 5867 5866 5865 5864 5863 5861 5860 5859 5857 5856 5854 5852 5849 5847 5844 5841 5839 5838 5837 5837 5836 5835 5834 5832 5830 5829 5828 5827 5827 5826 5826 5826
5867 5868 5868 5868 5869 5869 5868 5868 5867 5867 5866 5865 5864 5863 5862 5860 5859 5858 5856 5854 5852 5851 5848 5846 5844 5841 5838 5836 5835 5834 5833 5832 5831 5829 5827 5825 5824 5822 5821 5821 5821 5821 5820
5864 5865 5865 5866 5866 5866 5866 5866 5865 5865 5864 5863 5862 5860 5859 5858 5856 5855 5853 5851 5850 5848 5845 5844 5841 5839 5836 5834 5832 5831 5830 5829 5827 5825 5823 5821 5819 5817 5816 5816 5816 5815 5814
5861 5862 5862 5863 5863 5863 5863 5863 5863 5862 5861 5860 5859 5858 5856 5855 5853 5852 5850 5848 5847 5844 5843 5840 5838 5836 5834 5832 5830 5829 5827 5825 5823 5822 5820 5817 5815 5814 5812 5812 5811 5810 5809
5858 5859 5859 5860 5860 5860 5860 5860 5860 5859 5858 5857 5856 5855 5854 5852 5850 5849 5847 5845 5843 5841 5839 5837 5835 5833 5831 5829 5828 5826 5824 5822 5820 5818 5816 5814 5812 5810 5808 5807 5806 5804 5803
5855 5855 5856 5857 5857 5857 5857 5857 5856 5856 5855 5854 5853 5852 5850 5849 5847 5845 5844 5842 5840 5838 5836 5834 5832 5830 5828 5826 5824 5822 5820 5818 5816 5813 5811 5809 5807 5805 5803 5801 5799 5798 5795
5851 5852 5853 5853 5854 5854 5854 5854 5853 5853 5852 5850 5849 5848 5847 5845 5843 5842 5840 5838 5837 5835 5833 5831 5829 5827 5824 5822 5820 5818 5816 5813 5811 5808 5806 5803 5801 5799 5797 5794 5792 5790 5787
5847 5848 5849 5850 5850 5850 5851 5850 5850 5849 5848 5847 5845 5844 5843 5842 5840 5838 5837 5835 5833 5831 5829 5827 5825 5823 5820 5818 5816 5813 5811 5808 5806 5803 5800 5797 5794 5792 5789 5787 5784 5781 5779
5843 5845 5845 5845 5846 5846 5846 5846 5846 5845 5844 5843 5842 5841 5839 5837 5836 5835 5833 5831 5829 5827 5825 5823 5821 5818 5816 5813 5811 5808 5805 5802 5799 5796 5793 5790 5787 5784 5781 5778 5776 5773 5770
5839 5840 5841 5841 5842 5842 5842 5842 5842 5841 5840 5839 5838 5836 5835 5833 5832 5830 5829 5827 5825 5823 5821 5819 5816 5813 5810 5807 5805 5802 5798 5795 5792 5789 5786 5783 5779 5776 5773 5770 5767 5764 5761
5835 5836 5837 5837 5838 5838 5838 5838 5837 5836 5836 5835 5834 5832 5830 5829 5827 5826 5824 5822 5820 5818 5816 5813 5810 5807 5804 5801 5798 5795 5791 5788 5785 5781 5778 5774 5771 5767 5764 5760 5757 5754 5750
5831 5832 5832 5833 5833 5833 5833 5833 5833 5832 5831 5830 5829 5828 5826 5824 5823 5821 5819 5817 5815 5813 5810 5807 5804 5801 5798 5794 5791 5787 5784 5780 5776 5773 5769 5765 5761 5758 5755 5751 5747 5743 5739